This demonstration page uses our WeatherBlox Daily Observations layout. Learn more.

Hourly Observations for February 5, 2020

Temp ( °F °C ) Dew Point ( °F °C ) Humidity (%) Winds ( mph kmh ) Pressure ( in mb ) Visibility ( mi km ) Precip ( " mm )
12:15 am 00:15 Cloudy 23 -5.2 15 -9.3 73 73 NNE 12 19 30.31 1026 7 11.26538 0 0
12:35 am 00:35 Cloudy with Light Snow 22 -5.6 16 -8.7 79 79 N 10 17 30.31 1026 2.5 4.02335 0 0
12:55 am 00:55 Cloudy with Mist and Fog 21 -6 17 -8.5 83 83 N 9 15 30.3 1026 5 8.0467 0 0
1:15 am 01:15 Cloudy 21 -6 17 -8.1 85 85 N 10 17 30.28 1026 7 11.26538 0 0
1:35 am 01:35 Cloudy 21 -6.2 17 -8.1 87 87 N 10 17 30.28 1025 10 16.0934 0 0
1:55 am 01:55 Cloudy 21 -6.3 17 -8.1 87 87 N 7 11 30.28 1025 10 16.0934 0 0
2:15 am 02:15 Cloudy 21 -6.3 17 -8.2 87 87 NNW 5 7 30.28 1025 10 16.0934 0 0
2:35 am 02:35 Cloudy 20 -6.5 17 -8.2 88 88 N 7 11 30.29 1026 10 16.0934 0 0
2:55 am 02:55 Cloudy 20 -6.8 17 -8.4 89 89 N 6 9 30.28 1025 10 16.0934 0 0
3:15 am 03:15 Mostly Cloudy 19 -7.5 16 -8.8 91 91 N 5 7 30.27 1025 10 16.0934 0 0
3:35 am 03:35 Mostly Cloudy 17 -8.1 15 -9.3 91 91 NNE 5 7 30.27 1025 10 16.0934 0 0
3:55 am 03:55 Cloudy 19 -7.5 17 -8.5 93 93 N 5 7 30.26 1025 10 16.0934 0 0
4:15 am 04:15 Cloudy 19 -7.2 17 -8.5 91 91 N 5 7 30.26 1025 10 16.0934 0 0
4:35 am 04:35 Cloudy 19 -7 17 -8.5 89 89 NNW 5 7 30.25 1025 10 16.0934 0 0
4:55 am 04:55 Cloudy 20 -6.7 17 -8.6 87 87 Calm 30.25 1024 10 16.0934 0 0
5:15 am 05:15 Cloudy 20 -6.7 16 -9 84 84 N 3 6 30.24 1024 10 16.0934 0 0
5:35 am 05:35 Cloudy 19 -7 15 -9.3 84 84 N 6 9 30.24 1024 10 16.0934 0 0
5:55 am 05:55 Cloudy 19 -7.5 15 -9.6 85 85 N 5 7 30.24 1024 10 16.0934 0 0
6:15 am 06:15 Cloudy 19 -7.5 15 -9.6 85 85 N 6 9 30.24 1024 10 16.0934 0 0
6:35 am 06:35 Cloudy 17 -8.1 14 -10 86 86 N 6 9 30.23 1024 10 16.0934 0 0
6:55 am 06:55 Partly Cloudy 17 -8.4 13 -10.3 86 86 N 5 7 30.23 1024 10 16.0934 0 0
7:15 am 07:15 Mostly Cloudy 16 -9 13 -10.5 89 89 NNE 5 7 30.23 1024 10 16.0934 0 0
7:35 am 07:35 Partly Cloudy 15 -9.6 12 -11.1 89 89 NNE 5 7 30.24 1024 10 16.0934 0 0
7:55 am 07:55 Mostly Cloudy 14 -10 11 -11.5 89 89 NNE 5 7 30.25 1025 10 16.0934 0 0
8:15 am 08:15 Partly Cloudy 15 -9.5 12 -10.9 90 90 NNE 5 7 30.24 1024 10 16.0934 0 0
8:35 am 08:35 Sunny 17 -8.1 15 -9.6 89 89 N 3 6 30.23 1024 10 16.0934 0 0
8:55 am 08:55 Sunny 19 -7.1 16 -8.8 88 88 NNE 6 9 30.21 1023 10 16.0934 0 0
9:15 am 09:15 Sunny 20 -6.5 17 -8.5 86 86 NNE 5 7 30.21 1023 10 16.0934 0 0
9:35 am 09:35 Sunny 22 -5.8 18 -7.9 85 85 NE 5 7 30.19 1022 10 16.0934 0 0
9:55 am 09:55 Sunny 22 -5.4 17 -8.1 82 82 ENE 5 7 30.19 1022 10 16.0934 0 0
10:15 am 10:15 Sunny 23 -5 16 -9 74 74 Calm 30.17 1022 10 16.0934 0 0
10:35 am 10:35 Sunny 24 -4.4 16 -8.7 72 72 Calm 30.18 1022 10 16.0934 0 0
10:55 am 10:55 Sunny 25 -4 17 -8.6 71 71 Calm 30.17 1022 10 16.0934 0 0
11:15 am 11:15 Sunny 26 -3.2 17 -8.3 68 68 Calm 30.17 1022 10 16.0934 0 0
11:35 am 11:35 Sunny 27 -2.7 18 -8 67 67 Calm 30.14 1021 10 16.0934 0 0
11:55 am 11:55 Sunny 28 -2 17 -8.6 61 61 Calm 30.12 1020 10 16.0934 0 0
12:15 pm 12:15 Sunny 29 -1.7 17 -8.6 60 60 WSW 3 6 30.1 1019 10 16.0934 0 0
12:35 pm 12:35 Sunny 29 -1.6 16 -8.8 58 58 Calm 30.09 1019 10 16.0934 0 0
12:55 pm 12:55 Partly Cloudy 31 -0.7 17 -8.2 57 57 Calm 30.06 1018 10 16.0934 0 0
1:15 pm 13:15 Mostly Cloudy 32 -0.2 16 -8.7 53 53 SSW 6 9 30.04 1017 10 16.0934 0 0
1:35 pm 13:35 Mostly Cloudy 31 -0.8 15 -9.4 53 53 SW 6 9 30.02 1017 10 16.0934 0 0
1:55 pm 13:55 Mostly Cloudy 30 -1.1 16 -9.1 55 55 WSW 3 6 30.02 1016 10 16.0934 0 0
2:15 pm 14:15 Mostly Cloudy 32 0 15 -9.6 49 49 WSW 8 13 29.99 1016 10 16.0934 0 0
2:35 pm 14:35 Partly Cloudy 32 0 14 -10 47 47 SW 5 7 29.97 1015 10 16.0934 0 0
2:55 pm 14:55 Mostly Cloudy 32 0 13 -10.4 46 46 SW 3 6 29.96 1015 10 16.0934 0 0
3:15 pm 15:15 Mostly Cloudy 31 -0.3 15 -9.3 51 51 WSW 6 9 29.97 1015 10 16.0934 0 0
3:35 pm 15:35 Partly Cloudy 31 -0.7 14 -9.8 51 51 W 5 7 29.96 1015 10 16.0934 0 0
3:55 pm 15:55 Partly Cloudy 32 -0.2 16 -9.1 52 52 W 9 15 29.96 1014 10 16.0934 0 0
4:15 pm 16:15 Partly Cloudy 31 -0.5 15 -9.6 51 51 W 7 11 29.95 1014 10 16.0934 0 0
4:35 pm 16:35 Sunny 31 -0.5 13 -10.3 48 48 W 9 15 29.94 1014 10 16.0934 0 0
4:55 pm 16:55 Sunny 30 -0.9 12 -10.9 47 47 W 7 11 29.94 1014 10 16.0934 0 0
5:15 pm 17:15 Sunny 30 -1.2 13 -10.4 50 50 WSW 7 11 29.94 1014 10 16.0934 0 0
5:35 pm 17:35 Sunny 29 -1.8 12 -11 50 50 W 8 13 29.94 1014 10 16.0934 0 0
5:55 pm 17:55 Sunny 27 -2.8 14 -10.2 57 57 W 6 9 29.95 1014 10 16.0934 0 0
6:15 pm 18:15 Clear 26 -3.4 14 -10.1 60 60 WSW 5 7 29.96 1014 10 16.0934 0 0
6:35 pm 18:35 Clear 26 -3.3 14 -9.8 61 61 SSW 3 6 29.96 1014 10 16.0934 0 0
6:55 pm 18:55 Clear 26 -3.5 15 -9.5 64 64 SSW 3 6 29.96 1014 10 16.0934 0 0
7:15 pm 19:15 Clear 25 -4 15 -9.3 67 67 S 5 7 29.96 1015 10 16.0934 0 0
7:35 pm 19:35 Clear 24 -4.2 14 -10 64 64 S 6 9 29.96 1015 10 16.0934 0 0
7:55 pm 19:55 Clear 24 -4.4 14 -10.1 65 65 SSW 5 7 29.97 1015 10 16.0934 0 0
8:15 pm 20:15 Clear 24 -4.7 14 -10.1 66 66 S 5 7 29.96 1015 10 16.0934 0 0
8:35 pm 20:35 Clear 21 -6 15 -9.6 76 76 SSW 3 6 29.97 1015 10 16.0934 0 0
8:55 pm 20:55 Clear 22 -5.6 14 -10 71 71 SSW 5 7 29.96 1015 10 16.0934 0 0
9:15 pm 21:15 Clear 22 -5.6 14 -10 71 71 SSW 7 11 29.96 1015 10 16.0934 0 0
9:35 pm 21:35 Clear 22 -5.5 14 -10.2 70 70 SSW 6 9 29.96 1014 10 16.0934 0 0
9:55 pm 21:55 Clear 22 -5.6 13 -10.6 68 68 SSW 6 9 29.95 1014 10 16.0934 0 0
10:15 pm 22:15 Clear 22 -5.7 13 -10.5 69 69 SSW 7 11 29.95 1014 10 16.0934 0 0
10:35 pm 22:35 Clear 22 -5.8 13 -10.5 70 70 SSW 6 9 29.94 1014 10 16.0934 0 0
10:55 pm 22:55 Clear 21 -5.9 13 -10.5 70 70 SW 8 13 29.93 1014 10 16.0934 0 0
11:15 pm 23:15 Clear 22 -5.6 13 -10.5 69 69 SW 7 11 29.93 1013 10 16.0934 0 0
11:35 pm 23:35 Clear 22 -5.8 13 -10.6 69 69 SW 8 13 29.92 1013 10 16.0934 0 0
11:55 pm 23:55 Clear 20 -6.4 12 -10.9 71 71 SW 7 11 29.92 1013 10 16.0934 0 0

Powered by AerisWeather